Time,TemperatureF,DewpointF,PressureIn,WindDirection,WindDirectionDegrees,WindSpeedMPH,WindSpeedGustMPH,Humidity,HourlyPrecipIn,Conditions,Clouds,dailyrainin,SoftwareType,DateUTC
2013-06-11 00:04:00,63.8,62.0,29.83,ESE,104,0.0,1.0,94,0.00,,,0.00,weatherlink.com 1.10,2013-06-11 04:04:00,
2013-06-11 00:19:00,63.8,62.0,29.83,NE,46,0.0,1.0,94,0.00,,,0.00,weatherlink.com 1.10,2013-06-11 04:19:00,
2013-06-11 00:34:00,63.8,62.0,29.83,NE,44,0.0,0.0,93,0.00,,,0.00,weatherlink.com 1.10,2013-06-11 04:34:00,
2013-06-11 00:49:00,63.7,62.0,29.83,North,6,0.0,0.0,93,0.00,,,0.00,weatherlink.com 1.10,2013-06-11 04:49:00,
2013-06-11 01:04:00,63.7,62.0,29.83,NE,41,1.0,1.0,93,0.00,,,0.00,weatherlink.com 1.10,2013-06-11 05:04:00,
2013-06-11 01:19:00,63.5,62.0,29.83,NE,41,0.0,0.0,93,0.00,,,0.00,weatherlink.com 1.10,2013-06-11 05:19:00,
2013-06-11 01:34:00,63.5,62.0,29.83,NNE,17,0.0,0.0,93,0.00,,,0.00,weatherlink.com 1.10,2013-06-11 05:34:00,
2013-06-11 01:49:00,63.2,61.0,29.84,NNE,17,0.0,0.0,93,0.00,,,0.00,weatherlink.com 1.10,2013-06-11 05:49:00,
2013-06-11 02:04:00,63.1,61.0,29.84,NNE,20,0.0,1.0,94,0.00,,,0.00,weatherlink.com 1.10,2013-06-11 06:04:00,
2013-06-11 02:19:00,62.7,61.0,29.84,NNE,20,0.0,0.0,94,0.00,,,0.00,weatherlink.com 1.10,2013-06-11 06:19:00,
2013-06-11 02:34:00,62.6,61.0,29.84,NNE,20,0.0,0.0,94,0.00,,,0.00,weatherlink.com 1.10,2013-06-11 06:34:00,
2013-06-11 02:49:00,62.2,61.0,29.84,NNE,20,0.0,0.0,94,0.00,,,0.00,weatherlink.com 1.10,2013-06-11 06:49:00,
2013-06-11 03:04:00,61.8,60.0,29.84,NNE,20,0.0,0.0,95,0.00,,,0.00,weatherlink.com 1.10,2013-06-11 07:04:00,
2013-06-11 03:19:00,61.7,60.0,29.85,NNE,20,0.0,0.0,95,0.00,,,0.00,weatherlink.com 1.10,2013-06-11 07:19:00,
2013-06-11 03:34:00,61.5,60.0,29.85,North,352,0.0,0.0,95,0.00,,,0.00,weatherlink.com 1.10,2013-06-11 07:34:00,
2013-06-11 03:49:00,61.3,60.0,29.85,North,352,0.0,0.0,96,0.00,,,0.00,weatherlink.com 1.10,2013-06-11 07:49:00,
2013-06-11 04:04:00,60.9,60.0,29.85,North,351,0.0,0.0,96,0.00,,,0.00,weatherlink.com 1.10,2013-06-11 08:04:00,
2013-06-11 04:19:00,60.8,60.0,29.85,North,352,0.0,0.0,96,0.00,,,0.00,weatherlink.com 1.10,2013-06-11 08:19:00,
2013-06-11 04:34:00,60.8,60.0,29.86,North,351,0.0,0.0,96,0.00,,,0.00,weatherlink.com 1.10,2013-06-11 08:34:00,
2013-06-11 04:49:00,60.7,60.0,29.86,North,352,0.0,0.0,96,0.00,,,0.00,weatherlink.com 1.10,2013-06-11 08:49:00,
2013-06-11 05:04:00,60.6,60.0,29.87,North,352,0.0,0.0,96,0.00,,,0.00,weatherlink.com 1.10,2013-06-11 09:04:00,
2013-06-11 05:19:00,60.4,59.0,29.87,North,352,0.0,0.0,96,0.00,,,0.00,weatherlink.com 1.10,2013-06-11 09:19:00,
2013-06-11 05:34:00,60.0,59.0,29.88,North,352,0.0,0.0,96,0.00,,,0.00,weatherlink.com 1.10,2013-06-11 09:34:00,
2013-06-11 05:49:00,59.9,59.0,29.88,North,351,0.0,0.0,97,0.00,,,0.00,weatherlink.com 1.10,2013-06-11 09:49:00,
2013-06-11 06:04:00,60.0,59.0,29.89,North,352,0.0,0.0,97,0.00,,,0.00,weatherlink.com 1.10,2013-06-11 10:04:00,
2013-06-11 06:19:00,60.1,59.0,29.89,North,352,0.0,0.0,97,0.00,,,0.00,weatherlink.com 1.10,2013-06-11 10:19:00,
2013-06-11 06:35:00,60.0,59.0,29.90,North,352,0.0,0.0,97,0.00,,,0.00,weatherlink.com 1.10,2013-06-11 10:35:00,
2013-06-11 06:50:00,60.1,59.0,29.91,North,352,0.0,0.0,97,0.00,,,0.00,weatherlink.com 1.10,2013-06-11 10:50:00,
2013-06-11 07:05:00,60.4,60.0,29.91,North,352,0.0,0.0,97,0.00,,,0.00,weatherlink.com 1.10,2013-06-11 11:05:00,
2013-06-11 07:20:00,60.9,60.0,29.91,North,351,0.0,0.0,97,0.00,,,0.00,weatherlink.com 1.10,2013-06-11 11:20:00,
2013-06-11 07:35:00,62.5,62.0,29.91,North,351,0.0,0.0,97,0.00,,,0.00,weatherlink.com 1.10,2013-06-11 11:35:00,
2013-06-11 07:50:00,63.7,63.0,29.91,North,352,0.0,0.0,97,0.00,,,0.00,weatherlink.com 1.10,2013-06-11 11:50:00,
2013-06-11 08:05:00,65.0,64.0,29.91,NNE,23,0.0,2.0,97,0.00,,,0.00,weatherlink.com 1.10,2013-06-11 12:05:00,
2013-06-11 08:20:00,66.7,65.0,29.92,North,351,0.0,3.0,93,0.00,,,0.00,weatherlink.com 1.10,2013-06-11 12:20:00,
2013-06-11 08:35:00,69.4,66.0,29.92,North,353,0.0,0.0,89,0.00,,,0.00,weatherlink.com 1.10,2013-06-11 12:35:00,
2013-06-11 08:50:00,70.7,66.0,29.93,NNE,23,0.0,0.0,85,0.00,,,0.00,weatherlink.com 1.10,2013-06-11 12:50:00,
2013-06-11 09:05:00,71.5,66.0,29.93,North,8,0.0,0.0,83,0.00,,,0.00,weatherlink.com 1.10,2013-06-11 13:05:00,
2013-06-11 09:20:00,71.9,65.0,29.93,North,354,0.0,2.0,80,0.00,,,0.00,weatherlink.com 1.10,2013-06-11 13:20:00,
2013-06-11 09:35:00,73.5,66.0,29.92,WSW,240,0.0,2.0,78,0.00,,,0.00,weatherlink.com 1.10,2013-06-11 13:35:00,
2013-06-11 09:50:00,74.8,68.0,29.92,WNW,293,0.0,2.0,78,0.00,,,0.00,weatherlink.com 1.10,2013-06-11 13:50:00,
2013-06-11 10:05:00,75.9,66.0,29.93,East,84,0.0,3.0,72,0.00,,,0.00,weatherlink.com 1.10,2013-06-11 14:05:00,
2013-06-11 10:20:00,76.2,67.0,29.92,NNE,27,0.0,3.0,72,0.00,,,0.00,weatherlink.com 1.10,2013-06-11 14:20:00,
2013-06-11 10:35:00,76.5,66.0,29.92,NW,321,0.0,3.0,69,0.00,,,0.00,weatherlink.com 1.10,2013-06-11 14:35:00,
2013-06-11 10:50:00,79.1,68.0,29.93,NE,55,0.0,1.0,69,0.00,,,0.00,weatherlink.com 1.10,2013-06-11 14:50:00,
2013-06-11 11:05:00,79.1,66.0,29.93,ESE,111,0.0,2.0,65,0.00,,,0.00,weatherlink.com 1.10,2013-06-11 15:05:00,
2013-06-11 11:20:00,78.4,65.0,29.92,SE,146,2.0,5.0,63,0.00,,,0.00,weatherlink.com 1.10,2013-06-11 15:20:00,
2013-06-11 11:35:00,79.0,65.0,29.92,West,269,2.0,3.0,63,0.00,,,0.00,weatherlink.com 1.10,2013-06-11 15:35:00,
2013-06-11 11:50:00,78.4,65.0,29.91,NE,48,1.0,4.0,63,0.00,,,0.00,weatherlink.com 1.10,2013-06-11 15:50:00,
2013-06-11 12:05:00,79.3,66.0,29.91,North,5,1.0,4.0,63,0.00,,,0.00,weatherlink.com 1.10,2013-06-11 16:05:00,
2013-06-11 12:20:00,80.1,66.0,29.91,SE,136,0.0,4.0,62,0.00,,,0.00,weatherlink.com 1.10,2013-06-11 16:20:00,
2013-06-11 12:35:00,80.5,67.0,29.91,SSE,166,0.0,4.0,63,0.00,,,0.00,weatherlink.com 1.10,2013-06-11 16:35:00,
2013-06-11 12:50:00,81.3,66.0,29.91,ESE,112,2.0,4.0,60,0.00,,,0.00,weatherlink.com 1.10,2013-06-11 16:50:00,
2013-06-11 13:05:00,81.6,67.0,29.91,WSW,243,0.0,5.0,61,0.00,,,0.00,weatherlink.com 1.10,2013-06-11 17:05:00,
2013-06-11 13:20:00,81.8,65.0,29.90,SSE,155,1.0,5.0,56,0.00,,,0.00,weatherlink.com 1.10,2013-06-11 17:20:00,
2013-06-11 13:36:00,82.6,66.0,29.90,NNE,15,2.0,4.0,57,0.00,,,0.00,weatherlink.com 1.10,2013-06-11 17:36:00,
2013-06-11 13:51:00,82.8,65.0,29.90,South,191,2.0,4.0,55,0.00,,,0.00,weatherlink.com 1.10,2013-06-11 17:51:00,
2013-06-11 14:06:00,82.5,68.0,29.89,NE,42,1.0,5.0,61,0.00,,,0.00,weatherlink.com 1.10,2013-06-11 18:06:00,
2013-06-11 14:36:00,83.6,65.0,29.88,SE,125,1.0,5.0,54,0.00,,,0.00,weatherlink.com 1.10,2013-06-11 18:36:00,
2013-06-11 14:51:00,82.7,65.0,29.88,NNE,16,1.0,6.0,56,0.00,,,0.00,weatherlink.com 1.10,2013-06-11 18:51:00,
2013-06-11 15:06:00,84.0,67.0,29.88,SSW,201,4.0,10.0,56,0.00,,,0.00,weatherlink.com 1.10,2013-06-11 19:06:00,
2013-06-11 15:21:00,83.9,67.0,29.88,SE,128,1.0,5.0,57,0.00,,,0.00,weatherlink.com 1.10,2013-06-11 19:21:00,
2013-06-11 15:36:00,84.6,67.0,29.87,WSW,255,3.0,5.0,55,0.00,,,0.00,weatherlink.com 1.10,2013-06-11 19:36:00,
2013-06-11 15:51:00,83.8,67.0,29.86,NE,47,4.0,8.0,58,0.00,,,0.00,weatherlink.com 1.10,2013-06-11 19:51:00,
2013-06-11 16:06:00,83.7,66.0,29.86,SSE,164,4.0,7.0,56,0.00,,,0.00,weatherlink.com 1.10,2013-06-11 20:06:00,
2013-06-11 16:21:00,83.0,68.0,29.86,SE,129,1.0,5.0,61,0.00,,,0.00,weatherlink.com 1.10,2013-06-11 20:21:00,
2013-06-11 16:36:00,83.2,68.0,29.86,NNE,33,0.0,3.0,60,0.00,,,0.00,weatherlink.com 1.10,2013-06-11 20:36:00,
2013-06-11 16:51:00,82.5,68.0,29.87,NE,40,0.0,3.0,61,0.00,,,0.00,weatherlink.com 1.10,2013-06-11 20:51:00,
2013-06-11 17:06:00,82.1,68.0,29.88,WNW,291,1.0,5.0,63,0.00,,,0.00,weatherlink.com 1.10,2013-06-11 21:06:00,
2013-06-11 17:21:00,81.0,69.0,29.87,ENE,75,1.0,4.0,66,0.00,,,0.00,weatherlink.com 1.10,2013-06-11 21:21:00,
2013-06-11 17:36:00,80.3,68.0,29.85,SE,129,2.0,4.0,66,0.00,,,0.00,weatherlink.com 1.10,2013-06-11 21:36:00,
2013-06-11 17:51:00,79.7,70.0,29.83,ESE,114,0.0,2.0,71,0.00,,,0.00,weatherlink.com 1.10,2013-06-11 21:51:00,
2013-06-11 18:06:00,79.8,71.0,29.83,SE,131,0.0,2.0,75,0.00,,,0.00,weatherlink.com 1.10,2013-06-11 22:06:00,
2013-06-11 18:21:00,79.4,70.0,29.82,SSE,166,0.0,3.0,74,0.00,,,0.00,weatherlink.com 1.10,2013-06-11 22:21:00,
2013-06-11 18:36:00,79.3,71.0,29.83,ESE,111,0.0,1.0,75,0.00,,,0.00,weatherlink.com 1.10,2013-06-11 22:36:00,
2013-06-11 18:51:00,78.9,71.0,29.81,ESE,123,0.0,3.0,76,0.00,,,0.00,weatherlink.com 1.10,2013-06-11 22:51:00,
2013-06-11 19:21:00,78.5,70.0,29.82,ESE,120,1.0,2.0,74,0.00,,,0.00,weatherlink.com 1.10,2013-06-11 23:21:00,
2013-06-11 19:36:00,78.1,71.0,29.82,SE,127,0.0,3.0,78,0.00,,,0.00,weatherlink.com 1.10,2013-06-11 23:36:00,
2013-06-11 20:06:00,77.2,70.0,29.82,South,169,0.0,3.0,78,0.00,,,0.00,weatherlink.com 1.10,2013-06-12 00:06:00,
2013-06-11 20:21:00,77.4,70.0,29.86,NNE,25,1.0,1.0,78,0.00,,,0.00,weatherlink.com 1.10,2013-06-12 00:21:00,
2013-06-11 20:36:00,76.5,70.0,29.86,North,9,0.0,0.0,80,0.00,,,0.00,weatherlink.com 1.10,2013-06-12 00:36:00,
2013-06-11 20:51:00,75.7,70.0,29.85,North,8,0.0,0.0,81,0.00,,,0.00,weatherlink.com 1.10,2013-06-12 00:51:00,
2013-06-11 21:06:00,74.8,69.0,29.85,North,11,0.0,1.0,83,0.00,,,0.00,weatherlink.com 1.10,2013-06-12 01:06:00,
2013-06-11 21:21:00,74.2,70.0,29.84,North,10,0.0,0.0,85,0.00,,,0.00,weatherlink.com 1.10,2013-06-12 01:21:00,
2013-06-11 22:06:00,72.5,69.0,29.84,ESE,115,0.0,0.0,88,0.00,,,0.00,weatherlink.com 1.10,2013-06-12 02:06:00,
2013-06-11 22:21:00,72.2,69.0,29.84,ESE,116,0.0,0.0,88,0.00,,,0.00,weatherlink.com 1.10,2013-06-12 02:21:00,
2013-06-11 22:51:00,72.7,69.0,29.83,ESE,114,1.0,3.0,87,0.00,,,0.00,weatherlink.com 1.10,2013-06-12 02:51:00,
2013-06-11 23:06:00,73.1,69.0,29.82,ESE,114,2.0,4.0,86,0.00,,,0.00,weatherlink.com 1.10,2013-06-12 03:06:00,
2013-06-11 23:36:00,73.7,69.0,29.81,East,98,3.0,5.0,85,0.00,,,0.00,weatherlink.com 1.10,2013-06-12 03:36:00,
2013-06-11 23:51:00,74.0,69.0,29.81,SE,135,1.0,5.0,84,0.00,,,0.00,weatherlink.com 1.10,2013-06-12 03:51:00,